This is the latest recevied weather packets stored in our database for station/object W8KHW. If no packets are shown the sender has not sent any weather packets the latest 10 day(s).
| Time | Temp. | Humidity | Pressure | Rain* | Wind** | Luminosity | Snow |
|---|---|---|---|---|---|---|---|
| 1777815423 | 10.56° C | 58% | 1019.1 hPa | 0 mm | - | - | - |
| 1777814922 | 10° C | 57% | 1019.3 hPa | 0 mm | - | - | - |
| 1777814422 | 8.89° C | 59% | 1019.5 hPa | 0 mm | - | - | - |
| 1777813922 | 9.44° C | 61% | 1019.4 hPa | 0 mm | - | - | - |
| 1777813422 | 9.44° C | 64% | 1019.6 hPa | 0 mm | - | - | - |
| 1777812922 | 8.33° C | 64% | 1019.5 hPa | 0 mm | - | - | - |
| 1777812421 | 7.78° C | 63% | 1019.5 hPa | 0 mm | - | - | - |
| 1777811921 | 7.78° C | 69% | 1019.6 hPa | 0 mm | - | - | - |
| 1777811421 | 7.22° C | 71% | 1019.5 hPa | 0 mm | - | - | - |
| 1777810921 | 6.67° C | 73% | 1019.6 hPa | 0 mm | - | - | - |
| 1777810420 | 5.56° C | 85% | 1019.4 hPa | 0 mm | - | - | - |
| 1777809920 | 4.44° C | 96% | 1019.4 hPa | 0 mm | - | - | - |
| 1777809420 | 3.89° C | 97% | 1019.4 hPa | 0 mm | - | - | - |
| 1777808920 | 3.33° C | 97% | 1019.4 hPa | 0 mm | - | - | - |
| 1777808420 | 2.22° C | 97% | 1019.2 hPa | 0 mm | - | - | - |
| 1777807919 | 0.56° C | 97% | 1018.9 hPa | 0 mm | - | - | - |
| 1777807419 | 0° C | 97% | 1019 hPa | 0 mm | - | - | - |
| 1777806919 | -0.56° C | 97% | 1018.9 hPa | 0 mm | - | - | - |
| 1777806419 | -1.11° C | 97% | 1018.8 hPa | 0 mm | - | - | - |
| 1777805918 | -1.11° C | 97% | 1018.7 hPa | 0 mm | - | - | - |
| 1777805418 | -1.11° C | 97% | 1018.8 hPa | 0 mm | - | - | - |
| 1777804918 | -1.11° C | 97% | 1018.4 hPa | 0 mm | - | - | - |
| 1777804418 | -1.11° C | 97% | 1018.4 hPa | 0 mm | - | - | - |
| 1777803917 | -1.11° C | 97% | 1018.4 hPa | 0 mm | - | - | - |
| 1777803417 | -1.11° C | 97% | 1018.3 hPa | 0 mm | - | - | - |
* Rain latest hour (hover to see other rain measurements)
** Current wind speed in m/s (hover to see current wind gust speed)